DW6016 Weather Reports


time (UTC)temp
C
wind
direction
speed
KPH
gust
KPH
rain 1hr
cm
rain 24hr
cm
rain mn
cm
humidity
%
barometer
mb
20260503194518 28 273 1.6 1.6 0.00 0.00 0.00 45 1011.4
20260503194018 27 295 1.6 1.6 0.00 0.00 0.00 47 1011.2
20260503193515 27 286 4.8 4.8 0.00 0.00 0.00 45 1011.3
20260503193010 28 313 1.6 3.2 0.00 0.00 0.00 44 1011.4
20260503192506 28 110 1.6 1.6 0.00 0.00 0.00 44 1011.4
20260503192002 27 273 0.0 1.6 0.00 0.00 0.00 48 1011.5
20260503191459 27 257 1.6 1.6 0.00 0.00 0.00 47 1011.4
20260503190955 26 284 0.0 1.6 0.00 0.00 0.00 49 1011.6
20260503190453 27 294 1.6 1.6 0.00 0.00 0.00 47 1011.6
20260503185950 27 10 1.6 1.6 0.00 0.00 0.00 47 1011.7
20260503185446 26 267 1.6 1.6 0.00 0.00 0.00 48 1011.7
20260503184946 26 262 1.6 1.6 0.00 0.00 0.00 51 1011.9
20260503184443 26 122 1.6 1.6 0.00 0.00 0.00 50 1011.8
20260503183939 26 282 0.0 0.0 0.00 0.00 0.00 50 1011.9
20260503183436 25 184 1.6 1.6 0.00 0.00 0.00 51 1012.1
20260503182933 25 311 0.0 1.6 0.00 0.00 0.00 53 1012.2
20260503182432 25 289 1.6 1.6 0.00 0.00 0.00 51 1012.3
20260503181929 25 285 1.6 3.2 0.00 0.00 0.00 53 1012.1
20260503181426 25 164 1.6 3.2 0.00 0.00 0.00 53 1012.3
20260503180921 25 174 1.6 3.2 0.00 0.00 0.00 53 1012.3
20260503180420 24 307 1.6 1.6 0.00 0.00 0.00 53 1012.4
20260503175916 24 315 3.2 3.2 0.00 0.00 0.00 56 1012.5
20260503175415 23 277 0.0 1.6 0.00 0.00 0.00 58 1012.2
20260503174910 23 86 3.2 4.8 0.00 0.00 0.00 57 1012.4
20260503174408 23 141 3.2 3.2 0.00 0.00 0.00 57 1012.5
20260503173903 23 276 1.6 1.6 0.00 0.00 0.00 57 1012.4
20260503173359 22 296 1.6 1.6 0.00 0.00 0.00 60 1012.8
20260503172856 22 177 1.6 3.2 0.00 0.00 0.00 59 1012.4
20260503172354 22 308 1.6 1.6 0.00 0.00 0.00 61 1012.9
20260503171849 23 301 3.2 3.2 0.00 0.00 0.00 60 1012.8
20260503171346 22 298 0.0 0.0 0.00 0.00 0.00 59 1012.8
20260503170844 22 291 1.6 1.6 0.00 0.00 0.00 62 1012.7
20260503170340 22 214 0.0 1.6 0.00 0.00 0.00 62 1012.8
20260503150732 14 297 1.6 1.6 0.00 0.00 0.00 99 1013.3
20260503150229 13 303 0.0 0.0 0.00 0.00 0.00 99 1013.3
20260503140153 11 299 0.0 0.0 0.00 0.00 0.00 99 1013.0
20260503131117 10 299 0.0 0.0 0.00 0.00 0.00 99 1012.9
20260503130614 10 299 0.0 0.0 0.00 0.00 0.00 99 1012.8
20260503130112 10 299 0.0 0.0 0.00 0.00 0.00 99 1012.6
20260503110504 10 299 0.0 0.0 0.00 0.00 0.00 99 1013.1
20260503090350 11 299 0.0 0.0 0.00 0.00 0.00 99 1013.5
20260503081317 12 298 0.0 0.0 0.00 0.00 0.00 99 1013.5
20260503080814 12 299 0.0 0.0 0.00 0.00 0.00 99 1013.4
20260503080311 12 299 0.0 0.0 0.00 0.00 0.00 99 1013.4
20260503072748 12 299 0.0 0.0 0.00 0.00 0.00 99 1013.5
20260503072245 12 299 0.0 0.0 0.00 0.00 0.00 99 1013.6
20260503071741 12 299 0.0 0.0 0.00 0.00 0.00 99 1013.7
20260503071238 12 299 0.0 0.0 0.00 0.00 0.00 98 1013.5
20260503070734 12 299 0.0 0.0 0.00 0.00 0.00 98 1013.6
20260503070232 12 299 0.0 0.0 0.00 0.00 0.00 97 1013.6
20260503060157 14 299 0.0 0.0 0.00 0.00 0.00 92 1013.5
20260503054644 15 299 0.0 0.0 0.00 0.00 0.00 91 1013.7
20260503054141 15 299 0.0 0.0 0.00 0.00 0.00 90 1013.4
20260503053639 15 299 0.0 0.0 0.00 0.00 0.00 90 1013.4
20260503053138 15 299 0.0 0.0 0.00 0.00 0.00 89 1013.4
20260503052633 15 299 0.0 0.0 0.00 0.00 0.00 89 1013.4
20260503052130 15 303 1.6 1.6 0.00 0.00 0.00 88 1013.3
20260503051625 15 303 0.0 0.0 0.00 0.00 0.00 87 1013.5
20260503051123 16 303 0.0 0.0 0.00 0.00 0.00 86 1013.4
20260503050620 16 303 0.0 0.0 0.00 0.00 0.00 86 1013.5
20260503050116 16 303 0.0 0.0 0.00 0.00 0.00 85 1013.2
20260503045614 16 303 0.0 1.6 0.00 0.00 0.00 84 1013.7
20260503045111 16 299 1.6 1.6 0.00 0.00 0.00 83 1013.4
20260503044607 16 308 1.6 1.6 0.00 0.00 0.00 83 1013.7
20260503044105 16 287 1.6 1.6 0.00 0.00 0.00 83 1013.7
20260503043601 16 204 1.6 3.2 0.00 0.00 0.00 84 1013.9
20260503043058 16 293 0.0 1.6 0.00 0.00 0.00 86 1013.7
20260503042555 15 293 0.0 1.6 0.00 0.00 0.00 88 1013.5
20260503042051 15 293 0.0 0.0 0.00 0.00 0.00 87 1013.6
20260503041548 15 293 0.0 0.0 0.00 0.00 0.00 87 1013.4
20260503041046 15 293 0.0 0.0 0.00 0.00 0.00 87 1013.3
20260503040543 16 293 0.0 0.0 0.00 0.00 0.00 87 1013.6
20260503040040 16 293 0.0 0.0 0.00 0.00 0.00 86 1013.3
20260503035536 16 293 0.0 0.0 0.00 0.00 0.00 85 1013.6
20260503035034 16 293 0.0 0.0 0.00 0.00 0.00 84 1013.5
20260503034531 16 293 0.0 0.0 0.00 0.00 0.00 83 1013.6
20260503034028 16 293 0.0 0.0 0.00 0.00 0.00 83 1013.5
20260503033526 17 293 0.0 0.0 0.00 0.00 0.00 82 1013.4
20260503033023 17 293 0.0 0.0 0.00 0.00 0.00 81 1013.4
20260503032522 17 293 0.0 0.0 0.00 0.00 0.00 81 1013.4
20260503032019 17 293 0.0 0.0 0.00 0.00 0.00 79 1013.4
20260503031517 17 293 0.0 0.0 0.00 0.00 0.00 80 1013.2
20260503031014 17 293 0.0 0.0 0.00 0.00 0.00 78 1013.4
20260503030510 17 293 0.0 0.0 0.00 0.00 0.00 78 1013.0
20260503030007 17 293 0.0 0.0 0.00 0.00 0.00 77 1013.0
20260503025503 17 293 0.0 0.0 0.00 0.00 0.00 78 1013.3
20260503025001 17 293 0.0 0.0 0.00 0.00 0.00 77 1013.4
20260503024457 18 293 0.0 0.0 0.00 0.00 0.00 77 1013.2
20260503023955 18 294 0.0 0.0 0.00 0.00 0.00 76 1013.3
20260503023451 18 294 0.0 0.0 0.00 0.00 0.00 76 1013.4
20260503022948 18 299 0.0 0.0 0.00 0.00 0.00 75 1013.4
20260503022444 18 266 3.2 3.2 0.00 0.00 0.00 74 1013.6
20260503021940 18 291 0.0 1.6 0.00 0.00 0.00 74 1013.6
20260503021436 19 263 0.0 1.6 0.00 0.00 0.00 73 1013.5
20260503020934 19 268 1.6 1.6 0.00 0.00 0.00 72 1013.7
20260503020431 20 298 0.0 0.0 0.00 0.00 0.00 70 1013.4
20260503015927 20 285 0.0 1.6 0.00 0.00 0.00 69 1013.4
20260503015424 20 289 0.0 0.0 0.00 0.00 0.00 69 1012.8
20260503014920 21 290 0.0 0.0 0.00 0.00 0.00 69 1012.8
20260503014418 21 290 0.0 0.0 0.00 0.00 0.00 67 1012.5
20260503013916 21 290 0.0 0.0 0.00 0.00 0.00 67 1012.6
20260503013412 21 290 0.0 0.0 0.00 0.00 0.00 66 1012.5
20260503012909 21 290 0.0 0.0 0.00 0.00 0.00 65 1012.4
20260503012408 21 290 0.0 0.0 0.00 0.00 0.00 65 1012.5
20260503011903 22 291 0.0 0.0 0.00 0.00 0.00 64 1012.5
20260503011400 22 293 1.6 1.6 0.00 0.00 0.00 63 1012.3
20260503010857 22 299 1.6 1.6 0.00 0.00 0.00 60 1012.5
20260503010354 22 305 1.6 1.6 0.00 0.00 0.00 60 1012.2
20260503005851 22 305 3.2 3.2 0.00 0.00 0.00 60 1012.1
20260503005349 22 303 0.0 0.0 0.00 0.00 0.00 61 1012.2
20260503004844 22 303 0.0 1.6 0.00 0.00 0.00 60 1012.3
20260503004342 22 305 0.0 0.0 0.00 0.00 0.00 60 1012.5
20260503003839 22 301 0.0 1.6 0.00 0.00 0.00 59 1012.3
20260503003336 22 307 0.0 0.0 0.00 0.00 0.00 60 1012.4
20260503002833 22 164 3.2 4.8 0.00 0.00 0.00 59 1012.4
20260503002330 22 308 0.0 0.0 0.00 0.00 0.00 60 1012.4
20260503001827 22 326 0.0 0.0 0.00 0.00 0.00 58 1012.3
20260503001323 22 289 0.0 1.6 0.00 0.00 0.00 62 1012.2
20260503000820 21 269 1.6 1.6 0.00 0.00 0.00 60 1012.5
20260503000319 21 285 1.6 1.6 0.00 0.00 0.00 59 1012.6
20260502235815 21 311 1.6 3.2 0.00 0.00 0.00 60 1012.5
20260502235312 21 291 4.8 4.8 0.00 0.00 0.00 61 1012.6
20260502234809 21 324 0.0 0.0 0.00 0.00 0.00 60 1012.5
20260502234306 21 320 1.6 1.6 0.00 0.00 0.00 62 1012.6
20260502233802 20 292 0.0 0.0 0.00 0.00 0.00 62 1012.7
20260502233258 20 297 1.6 1.6 0.00 0.00 0.00 63 1012.7
20260502232755 20 318 1.6 3.2 0.00 0.00 0.00 62 1012.8
20260502232252 20 307 0.0 0.0 0.00 0.00 0.00 63 1012.9
20260502231748 20 293 3.2 3.2 0.00 0.00 0.00 63 1013.0
20260502231246 20 305 0.0 0.0 0.00 0.00 0.00 63 1013.1
20260502230744 20 290 4.8 4.8 0.00 0.00 0.00 65 1013.0
20260502230242 20 302 4.8 4.8 0.00 0.00 0.00 65 1013.1
20260502225739 20 293 1.6 3.2 0.00 0.00 0.00 65 1013.1
20260502225236 20 292 1.6 3.2 0.00 0.00 0.00 66 1013.4
20260502224732 20 297 0.0 0.0 0.00 0.00 0.00 67 1013.4
20260502224229 20 296 3.2 4.8 0.00 0.00 0.00 67 1013.3
20260502223726 20 295 0.0 1.6 0.00 0.00 0.00 67 1013.5
20260502223224 19 296 1.6 3.2 0.00 0.00 0.00 66 1013.5
20260502222721 19 303 3.2 3.2 0.00 0.00 0.00 66 1013.6
20260502222218 18 312 1.6 1.6 0.00 0.00 0.00 68 1013.8
20260502221714 19 308 1.6 1.6 0.00 0.00 0.00 66 1014.0
20260502221211 19 301 1.6 1.6 0.00 0.00 0.00 66 1014.0
20260502220707 19 296 3.2 3.2 0.00 0.00 0.00 67 1013.9
20260502220203 19 299 1.6 1.6 0.00 0.00 0.00 68 1014.0
20260502215700 18 301 1.6 1.6 0.00 0.00 0.00 67 1014.2
20260502215157 18 110 4.8 4.8 0.00 0.00 0.00 67 1014.1
20260502214655 18 301 0.0 0.0 0.00 0.00 0.00 68 1014.2
20260502214152 18 250 0.0 1.6 0.00 0.00 0.00 71 1014.5
20260502213649 18 189 3.2 4.8 0.00 0.00 0.00 69 1014.4
20260502213146 18 138 3.2 3.2 0.00 0.00 0.00 70 1014.4
20260502212645 18 318 0.0 0.0 0.00 0.00 0.00 68 1014.7
20260502212143 18 300 0.0 1.6 0.00 0.00 0.00 69 1014.8
20260502211638 18 332 0.0 0.0 0.00 0.00 0.00 70 1014.5
20260502211135 17 320 1.6 1.6 0.00 0.00 0.00 70 1015.0
20260502210633 17 5 3.2 3.2 0.00 0.00 0.00 68 1014.7
20260502210129 17 288 3.2 3.2 0.00 0.00 0.00 70 1015.0
20260502205626 17 294 1.6 1.6 0.00 0.00 0.00 74 1014.8
20260502205123 17 249 0.0 1.6 0.00 0.00 0.00 72 1015.1
20260502204620 17 347 1.6 1.6 0.00 0.00 0.00 71 1015.3
20260502204117 17 346 1.6 1.6 0.00 0.00 0.00 71 1015.5
20260502203614 17 324 0.0 1.6 0.00 0.00 0.00 72 1015.5
20260502203112 17 310 1.6 1.6 0.00 0.00 0.00 72 1015.6
20260502202607 17 308 0.0 1.6 0.00 0.00 0.00 74 1015.6
20260502202106 16 151 1.6 3.2 0.00 0.00 0.00 74 1015.6
20260502201601 16 301 1.6 3.2 0.00 0.00 0.00 73 1015.7
20260502201058 16 296 4.8 4.8 0.00 0.00 0.00 74 1015.8
20260502200554 16 304 1.6 1.6 0.00 0.00 0.00 74 1015.7
20260502200052 16 292 0.0 0.0 0.00 0.00 0.00 74 1015.9
20260502195550 16 305 1.6 1.6 0.00 0.00 0.00 77 1015.8
20260502195045 15 299 1.6 1.6 0.00 0.00 0.00 77 1015.8